Flag for Nicaragua Weather past 2 weeks in Managua, Nicaragua

Now
86 °F

Passing clouds.


Feels Like: 88 °F
Forecast: 75 / 95 °F
Wind: 12 mph from East

Location: Managua A. C. Sandino

Current Time: Mar 29, 2015 at 10:34:41 PM

Latest Report: Mar 29, 2015 at 9:00 PM


Visibility: N/A

Pressure: 29.95 "Hg

Humidity: 52%

Dew point: 66 °F

Location of ManaguaLocation

Historic Weather in Managua — Graph

°F

Managua temperature yesterday

Maximum temperature yesterday: 95 °F (at 2:00 PM)
Minimum temperature yesterday: 75 °F (at 5:00 AM)
Average temperature yesterday: 86 °F

Past Weeks' High & Low Weather Summary

 TemperatureHumidityPressure
High97 °F (Mar 29, 2:00 PM)94% (Mar 19, 6:00 AM)30.01 "Hg (Mar 19, 6:00 AM)
Low68 °F (Mar 19, 6:00 AM)30% (Mar 29, 2:00 PM)29.77 "Hg (Mar 15, 3:00 PM)
Average84 °F57%29.90 "Hg
* Reported Mar 14 9:00 PM — Mar 29 9:00 PM, Managua, Weather by CustomWeather, © 2015

Note: Actual official high and low records may vary slightly from our data, if they occured in-between our weather recording intervals... More about our weather records

Advertising

Managua weather history for previous 24 hours

 ConditionsComfort  
Time TempWeatherWind HumidityBarometerVisibility
9:00 PM
Sun, Mar 29
86 °FPassing clouds.12 mph52%29.95 "HgN/A
8:00 PM88 °FPassing clouds.7 mph46%29.95 "HgN/A
7:00 PM88 °FPassing clouds.7 mph46%29.92 "HgN/A
6:00 PM91 °FPassing clouds.9 mph41%29.86 "HgN/A
5:00 PM93 °FScattered clouds.16 mph39%29.83 "HgN/A
4:00 PM95 °FScattered clouds.9 mph34%29.83 "HgN/A
3:00 PM97 °FScattered clouds.14 mph30%29.86 "HgN/A
2:00 PM97 °FPassing clouds.16 mph30%29.89 "HgN/A
1:00 PM95 °FPassing clouds.16 mph32%29.92 "HgN/A
12:00 PM93 °FPassing clouds.12 mph34%29.95 "HgN/A
11:00 AM91 °FPassing clouds.12 mph41%29.98 "HgN/A
10:00 AM88 °FPassing clouds.16 mph49%30.01 "HgN/A
9:00 AM84 °FPassing clouds.14 mph55%30.01 "HgN/A
8:00 AM82 °FPassing clouds.12 mph58%30.01 "HgN/A
7:00 AM79 °FPassing clouds.7 mph70%29.98 "Hg5 mi
6:00 AM75 °FScattered clouds.5 mph78%29.95 "HgN/A
5:00 AM75 °FPassing clouds.5 mph78%29.95 "HgN/A
1:00 AM81 °FPassing clouds.12 mph66%29.95 "HgN/A
12:00 AM82 °FPassing clouds.12 mph66%29.95 "HgN/A
11:00 PM
Sat, Mar 28
82 °FPassing clouds.12 mph66%29.95 "HgN/A
10:00 PM84 °FPassing clouds.7 mph51%29.95 "HgN/A
Weather by CustomWeather, © 2015

See weather overviewHow to use our weather pages